[[{"header":{"parameterUnit":"m.s-1","parameterCategory":1,"la1":30.2991,"la2":30.254,"lo1":-89.0895,"lo2":-89.0444,"dy":0.0017,"dx":0.0017,"nx":28,"ny":28,"refTime":"2025-03-07T09:00:00:Z","depth":0,"parameterNumber":2,"parameterNumberName":"U-component_of_WINDS"},"data":[0,0,0,0,0,0,0,0,0,0,0,0,0,0,0,0,0,0,0,0,0,0,0,0,0,0,0,0,0,0,0,0,0,0,0,0,0,0,0,0,0,0,0,0,0,0,0,0,0,0,0,0,0,0,0,0,0,0,-0.8641,-0.864,0,-0.8605,-0.8604,-0.8604,-0.8591,-0.8591,-0.8591,-0.8591,-0.8552,-0.8551,-0.855,0,0,0,0,0,0,0,0,0,0,0,0,0,-0.8696,-0.8695,-0.8641,-0.864,-0.864,-0.8605,-0.8604,-0.8604,-0.8591,-0.8591,-0.8591,-0.8591,-0.8552,-0.8551,-0.855,0,0,0,0,0,0,0,0,0,0,0,0,0,-0.8667,-0.8695,-0.8641,-0.8629,-0.8628,-0.8605,-0.8604,-0.8604,-0.859,-0.8591,-0.8591,-0.8591,-0.8553,-0.8551,-0.855,-0.8535,0,0,-0.8544,-0.8544,0,0,0,0,0,0,0,0,-0.8669,-0.8665,-0.8631,-0.863,-0.8628,-0.8602,-0.8609,-0.8581,-0.859,-0.8605,-0.8591,-0.8591,-0.8569,-0.8566,-0.8558,-0.8533,-0.8532,-0.8544,-0.8543,-0.8542,-0.8542,0,0,0,0,0,0,0,-0.8671,-0.8667,-0.8626,-0.8631,-0.8629,-0.8625,-0.8621,-0.8604,-0.8586,-0.8603,-0.8602,-0.8598,-0.8568,-0.856,-0.8557,-0.8531,-0.8544,-0.8543,-0.8542,-0.8541,-0.8492,-0.8491,0,0,0,0,0,0,-0.8675,-0.8668,-0.8628,-0.8625,-0.8649,-0.8624,-0.8619,-0.861,-0.8586,-0.8583,-0.8598,-0.8598,-0.8563,-0.8559,-0.8556,-0.8537,-0.8542,-0.8541,-0.854,-0.8492,-0.8492,-0.8491,0,0,0,0,0,0,-0.8676,-0.8672,-0.8629,-0.8647,-0.8641,-0.8623,-0.8613,-0.861,-0.8602,-0.8582,-0.8579,-0.8594,-0.8563,-0.8558,-0.854,-0.8535,-0.854,-0.8538,-0.8492,-0.8492,-0.8491,-0.8499,0,0,0,0,0,0,-0.8678,-0.8672,-0.8667,-0.8647,-0.864,-0.8615,-0.8612,-0.8609,-0.8599,-0.8598,-0.8577,-0.8574,-0.8563,-0.8543,-0.8539,-0.8533,-0.8537,-0.8493,-0.8492,-0.8492,-0.8499,-0.8499,-0.8499,0,0,0,0,0,-0.868,-0.867,-0.8667,-0.8662,-0.8633,-0.8615,-0.8611,-0.8599,-0.8599,-0.8593,-0.858,-0.8574,-0.8537,-0.8541,-0.8536,-0.853,-0.8493,-0.8492,-0.8492,-0.8499,-0.8499,-0.8499,0,0,0,0,0,0,-0.869,-0.8668,-0.8663,-0.8647,-0.8633,-0.8612,-0.8605,-0.8599,-0.8584,-0.8584,-0.8569,-0.8564,-0.8547,-0.8537,-0.8542,-0.8514,-0.8514,-0.8513,-0.8522,-0.8521,-0.8521,-0.8524,-0.8536,0,0,0,0,0,-0.8691,-0.8678,-0.8659,-0.8646,-0.8639,-0.8623,-0.8615,-0.8607,-0.8591,-0.8585,-0.8571,-0.8556,-0.854,-0.853,-0.8515,-0.8498,-0.8492,-0.8491,-0.8491,-0.8491,-0.8489,-0.8478,-0.8477,-0.8489,-0.8489,-0.8489,0,0,-0.8692,-0.8678,-0.867,-0.8648,-0.8636,-0.8622,-0.8618,-0.8604,-0.8594,-0.8583,-0.8565,-0.8554,-0.8536,-0.8518,-0.8509,-0.8509,-0.8485,-0.849,-0.849,-0.8488,-0.8477,-0.8476,-0.8475,-0.8489,-0.8489,-0.8489,0,0,-0.8686,-0.8674,-0.8662,-0.865,-0.8633,-0.8622,-0.8619,-0.8599,-0.8592,-0.8574,-0.8565,-0.8552,-0.8526,-0.8513,-0.8503,-0.8492,-0.8485,-0.8487,-0.8486,-0.8475,-0.8474,-0.8473,-0.8468,-0.8467,-0.8486,-0.8486,-0.8486,0,-0.8689,-0.8669,-0.8657,-0.8643,-0.8633,-0.8623,-0.861,-0.8598,-0.8576,-0.8569,-0.8569,-0.8536,-0.8523,-0.8501,-0.8499,-0.8491,-0.8487,-0.8489,-0.8476,-0.8475,-0.8473,-0.8469,-0.8467,-0.8486,-0.8486,-0.8486,-0.8486,0,-0.8673,-0.8659,-0.8651,-0.863,-0.8619,-0.8606,-0.8591,-0.8582,-0.8574,-0.8563,-0.8545,-0.8529,-0.851,-0.8504,-0.8497,-0.8481,-0.8481,-0.8479,-0.8478,-0.8473,-0.8468,-0.8466,-0.8486,-0.8486,-0.8486,-0.8486,0,0,-0.8673,-0.8645,-0.8642,-0.8632,-0.8612,-0.86,-0.8586,-0.8568,-0.856,-0.8544,-0.8532,-0.851,-0.8507,-0.8495,-0.8487,-0.8477,-0.8468,-0.8476,-0.8475,-0.8474,-0.8449,-0.8451,-0.8449,-0.8464,-0.8464,-0.8464,-0.845,0,-0.8664,-0.8639,-0.8627,-0.8607,-0.8593,-0.8583,-0.857,-0.8556,-0.8545,-0.8531,-0.8519,-0.8504,-0.8501,-0.8494,-0.8485,-0.8472,-0.8463,-0.8472,-0.8451,-0.845,-0.8455,-0.8447,-0.8448,-0.8437,-0.8448,-0.8448,-0.8448,0,-0.865,-0.8635,-0.8613,-0.8594,-0.8587,-0.8577,-0.8558,-0.8546,-0.8529,-0.8521,-0.8509,-0.85,-0.8484,-0.8485,-0.8462,-0.8468,-0.8459,-0.8451,-0.845,-0.8447,-0.8448,-0.8442,-0.8433,-0.8431,-0.8445,-0.8445,-0.8445,0,-0.8651,-0.8626,-0.8609,-0.8601,-0.8578,-0.857,-0.856,-0.8543,-0.8533,-0.8517,-0.8509,-0.8492,-0.8482,-0.8468,-0.8454,-0.8456,-0.8432,-0.8432,-0.8425,-0.8425,-0.842,-0.842,-0.8408,-0.8415,-0.8415,-0.8415,-0.8415,0,-0.8642,-0.8629,-0.8609,-0.8599,-0.8584,-0.857,-0.8555,-0.8544,-0.8529,-0.8516,-0.8506,-0.8494,-0.8477,-0.8462,-0.8452,-0.8433,-0.8429,-0.8422,-0.8419,-0.8423,-0.8423,-0.8416,-0.8416,-0.8414,-0.8415,-0.8415,-0.8415,0,-0.8641,-0.8627,-0.8608,-0.8588,-0.8582,-0.8572,-0.8554,-0.8543,-0.8532,-0.8515,-0.851,-0.8492,-0.8474,-0.846,-0.8436,-0.8429,-0.8409,-0.8407,-0.8415,-0.8414,-0.8407,-0.8407,-0.8388,-0.8385,-0.8395,-0.8395,-0.8395,0,-0.8636,-0.8625,-0.8603,-0.8594,-0.8584,-0.8569,-0.8558,-0.8544,-0.8533,-0.8513,-0.8504,-0.8486,-0.847,-0.8442,-0.8426,-0.8408,-0.8404,-0.8398,-0.8401,-0.8404,-0.8402,-0.8403,-0.8401,-0.8398,-0.8398,-0.8398,-0.8398,0,-0.8628,-0.8621,-0.8606,-0.8589,-0.8576,-0.8562,-0.8547,-0.854,-0.8523,-0.8511,-0.8493,-0.848,-0.8456,-0.8438,-0.8418,-0.8406,-0.8399,-0.8397,-0.8394,-0.8397,-0.8402,-0.8399,-0.8414,-0.8398,-0.8398,-0.8398,-0.8398,-0.8398,-0.8624,-0.8614,-0.8596,-0.858,-0.8567,-0.8553,-0.8542,-0.8529,-0.8514,-0.8493,-0.8486,-0.8467,-0.8449,-0.8421,-0.841,-0.8394,-0.8393,-0.8389,-0.8388,-0.8387,-0.8387,-0.8406,-0.839,-0.839,-0.839,-0.839,-0.839,0,-0.8614,-0.8603,-0.8588,-0.8567,-0.8554,-0.8549,-0.8532,-0.8521,-0.8504,-0.8488,-0.8473,-0.8452,-0.8433,-0.8416,-0.8397,-0.8387,-0.8383,-0.8382,-0.8383,-0.838,-0.8389,-0.8393,-0.8386,-0.8386,-0.8386,-0.8386,-0.8386,-0.8386,-0.8608,-0.859,-0.8582,-0.8558,-0.8546,-0.8527,-0.8518,-0.8505,-0.8492,-0.8468,-0.8453,-0.8442,-0.8425,-0.8405,-0.8387,-0.8382,-0.8375,-0.8375,-0.837,-0.8379,-0.8379,-0.838,-0.8384,-0.8374,-0.8374,-0.8361,-0.8361,-0.8361]},{"header":{"parameterUnit":"m.s-1","parameterCategory":1,"la1":30.2991,"la2":30.254,"lo1":-89.0895,"lo2":-89.0444,"dy":0.0017,"dx":0.0017,"nx":28,"ny":28,"refTime":"2025-03-07T09:00:00:Z","depth":0,"parameterNumber":3,"parameterNumberName":"V-component_of_WINDS"},"data":[0,0,0,0,0,0,0,0,0,0,0,0,0,0,0,0,0,0,0,0,0,0,0,0,0,0,0,0,0,0,0,0,0,0,0,0,0,0,0,0,0,0,0,0,0,0,0,0,0,0,0,0,0,0,0,0,0,0,3.2087,3.2088,0,3.2159,3.216,3.2161,3.2143,3.2141,3.214,3.2139,3.2211,3.2215,3.2218,0,0,0,0,0,0,0,0,0,0,0,0,0,3.1933,3.1936,3.2087,3.2088,3.2088,3.2159,3.216,3.2161,3.2143,3.2141,3.214,3.2138,3.221,3.2214,3.2218,0,0,0,0,0,0,0,0,0,0,0,0,0,3.2002,3.1937,3.2086,3.2088,3.2089,3.2159,3.216,3.2161,3.2143,3.2141,3.2139,3.2137,3.2209,3.2214,3.2219,3.2291,0,0,3.2234,3.2236,0,0,0,0,0,0,0,0,3.1998,3.2007,3.2087,3.2088,3.2089,3.214,3.2132,3.2205,3.2144,3.2123,3.2139,3.2136,3.2189,3.2196,3.2214,3.2294,3.2297,3.2234,3.2237,3.2239,3.224,0,0,0,0,0,0,0,3.1993,3.2004,3.2115,3.2088,3.209,3.2085,3.2093,3.2146,3.2167,3.2124,3.2123,3.2132,3.2189,3.2209,3.2215,3.2299,3.2234,3.2238,3.2241,3.2243,3.2445,3.2447,0,0,0,0,0,0,3.1987,3.2,3.2113,3.2117,3.2037,3.209,3.2098,3.2126,3.2166,3.217,3.2134,3.2131,3.2202,3.221,3.2218,3.2308,3.2239,3.2244,3.2246,3.2443,3.2446,3.2448,0,0,0,0,0,0,3.1984,3.1998,3.211,3.2059,3.2073,3.2095,3.2126,3.2128,3.2148,3.2173,3.2177,3.215,3.22,3.2211,3.2274,3.231,3.2246,3.225,3.244,3.2444,3.2447,3.2486,0,0,0,0,0,0,3.198,3.1997,3.2024,3.2059,3.2075,3.2165,3.2128,3.2131,3.2157,3.2154,3.219,3.2194,3.22,3.2267,3.2279,3.2315,3.2254,3.2437,3.2441,3.2446,3.2482,3.2491,3.2498,0,0,0,0,0,3.1974,3.2031,3.2026,3.2039,3.2111,3.2167,3.2176,3.2182,3.2159,3.2188,3.2205,3.2193,3.2303,3.2273,3.2286,3.2325,3.2434,3.244,3.2445,3.2478,3.2489,3.2498,0,0,0,0,0,0,3.1999,3.2036,3.203,3.21,3.2131,3.2164,3.2199,3.2193,3.223,3.2226,3.2231,3.2239,3.2304,3.232,3.2286,3.2399,3.2366,3.2374,3.2386,3.2397,3.2405,3.24,3.2258,0,0,0,0,0,3.2012,3.2055,3.2085,3.2144,3.216,3.2177,3.2202,3.2204,3.2236,3.2248,3.227,3.23,3.2343,3.237,3.241,3.2484,3.2493,3.2517,3.2525,3.2532,3.254,3.2583,3.2595,3.2466,3.2466,3.2466,0,0,3.2041,3.2066,3.2093,3.215,3.2174,3.2219,3.2188,3.2236,3.227,3.2255,3.2317,3.2334,3.2368,3.2438,3.2469,3.2454,3.2577,3.2539,3.2544,3.2548,3.259,3.2602,3.2613,3.247,3.2469,3.2469,0,0,3.2116,3.2139,3.2192,3.2217,3.2254,3.2266,3.2278,3.2313,3.2324,3.2386,3.2377,3.2417,3.2488,3.2515,3.2537,3.2625,3.2616,3.2637,3.2681,3.2723,3.2733,3.2742,3.2776,3.2788,3.2645,3.2645,3.2645,0,3.2147,3.2214,3.222,3.227,3.2296,3.2286,3.2341,3.2364,3.2412,3.2431,3.2412,3.2504,3.2526,3.2603,3.2625,3.2643,3.2659,3.2634,3.2731,3.2741,3.2749,3.2782,3.2794,3.2647,3.2647,3.2647,3.2646,0,3.2251,3.2299,3.2337,3.2385,3.2415,3.2467,3.2481,3.2511,3.2511,3.2525,3.2589,3.2616,3.2662,3.268,3.2679,3.2758,3.2747,3.273,3.2697,3.2764,3.2795,3.2807,3.2651,3.265,3.2649,3.2649,0,0,3.2344,3.2396,3.2411,3.2434,3.2475,3.2511,3.2563,3.261,3.2636,3.267,3.2715,3.2776,3.2762,3.2788,3.279,3.2826,3.2898,3.2805,3.2806,3.2824,3.2988,3.3003,3.3017,3.2891,3.2894,3.2895,3.2986,0,3.2425,3.2518,3.2525,3.2609,3.2654,3.2645,3.2691,3.2721,3.2736,3.2776,3.2791,3.2836,3.2812,3.2828,3.2863,3.2881,3.2931,3.2875,3.2935,3.2937,3.2929,3.3032,3.3047,3.3132,3.2998,3.3,3.3001,0,3.2532,3.2571,3.266,3.2697,3.2716,3.2757,3.2801,3.2839,3.2874,3.2882,3.2912,3.291,3.2964,3.2929,3.3005,3.2966,3.2991,3.3004,3.3007,3.3015,3.2975,3.3045,3.3158,3.3172,3.302,3.3018,3.3017,0,3.2594,3.2668,3.2732,3.2751,3.2795,3.2825,3.2845,3.2877,3.2906,3.2944,3.2963,3.3007,3.3031,3.3066,3.3076,3.3049,3.3153,3.3117,3.3163,3.3163,3.3186,3.3185,3.3308,3.3198,3.3198,3.3198,3.3198,0,3.2685,3.2741,3.2761,3.28,3.2862,3.287,3.2931,3.2949,3.2979,3.3022,3.3016,3.3057,3.3067,3.3109,3.3118,3.3181,3.3191,3.32,3.3202,3.3202,3.3202,3.322,3.3216,3.3201,3.32,3.32,3.3199,0,3.2766,3.2782,3.2851,3.2888,3.2898,3.2943,3.2974,3.3013,3.3026,3.3081,3.3094,3.3116,3.3166,3.318,3.3239,3.3245,3.332,3.3315,3.3309,3.331,3.3356,3.3352,3.3496,3.3517,3.3391,3.3393,3.3394,0,3.2824,3.2867,3.2909,3.2938,3.296,3.3006,3.3036,3.3045,3.3076,3.312,3.3154,3.3203,3.3244,3.3324,3.3346,3.3392,3.339,3.3437,3.3397,3.3396,3.3394,3.3392,3.3398,3.3445,3.3447,3.3448,3.3449,0,3.2927,3.2934,3.2977,3.3024,3.3059,3.3096,3.3131,3.3155,3.317,3.3205,3.3257,3.3289,3.335,3.3401,3.3448,3.3468,3.3462,3.3461,3.3475,3.3476,3.3472,3.3478,3.3333,3.3458,3.3457,3.3457,3.3456,3.3456,3.3001,3.304,3.3076,3.3125,3.3153,3.3187,3.3225,3.3245,3.3288,3.3341,3.3343,3.34,3.3435,3.3498,3.3521,3.3567,3.3553,3.3571,3.3576,3.3582,3.3587,3.3463,3.3575,3.3574,3.3574,3.3574,3.3574,0,3.3106,3.313,3.3174,3.3225,3.3264,3.3255,3.3294,3.3327,3.3378,3.3412,3.3452,3.3513,3.3562,3.3588,3.3637,3.3668,3.3667,3.3681,3.368,3.3686,3.3595,3.358,3.3682,3.3682,3.3682,3.3682,3.3682,3.3682,3.3166,3.3232,3.3242,3.3323,3.3346,3.3403,3.3426,3.3458,3.3485,3.3554,3.3595,3.3612,3.3643,3.3694,3.374,3.3746,3.3765,3.3782,3.3787,3.3703,3.3692,3.3681,3.3667,3.3786,3.3786,3.3874,3.3875,3.3876]}]]